When you browse on this site, cookies collect data to enhance your experience and personalize the content and advertising you see.
Visit our Privacy Policy to learn more. By continuing to use the site, you agree to this use of cookies and data.
  • In France
  • List of Countries
  • For 7 days
  • Water Temperature
  • Weather Map
  • Weather Widgets
  • user-avatar
    Login

    Hourly Weather El Quseir

    Today, 29 May, Friday

    Time Temperature Precipitation Wind Pressure Humidity
    00:00 +27°C° 0 mm 11 mps 758 mmHg 25%
    01:00 +27°C° 0 mm 11 mps 758 mmHg 27%
    02:00 +26°C° 0 mm 12 mps 758 mmHg 29%
    03:00 +24°C° 0 mm 12 mps 758 mmHg 31%
    04:00 +24°C° 0 mm 13 mps 758 mmHg 33%
    05:00 +23°C° 0 mm 14 mps 758 mmHg 35%
    06:00 +26°C° 0 mm 14 mps 759 mmHg 31%
    07:00 +28°C° 0 mm 14 mps 759 mmHg 26%
    08:00 +31°C° 0 mm 14 mps 759 mmHg 22%
    09:00 +33°C° 0 mm 14 mps 759 mmHg 22%
    10:00 +34°C° 0 mm 13 mps 759 mmHg 21%
    11:00 +36°C° 0 mm 13 mps 759 mmHg 21%
    12:00 +36°C° 0 mm 12 mps 758 mmHg 19%
    13:00 +36°C° 0 mm 12 mps 758 mmHg 17%
    14:00 +37°C° 0 mm 12 mps 757 mmHg 16%
    15:00 +36°C° 0 mm 12 mps 757 mmHg 16%
    16:00 +34°C° 0 mm 12 mps 757 mmHg 17%
    17:00 +34°C° 0 mm 12 mps 757 mmHg 17%
    18:00 +32°C° 0 mm 11 mps 757 mmHg 17%
    19:00 +31°C° 0 mm 11 mps 757 mmHg 17%
    20:00 +29°C° 0 mm 10 mps 757 mmHg 17%
    21:00 +28°C° 0 mm 10 mps 757 mmHg 18%
    22:00 +27°C° 0 mm 10 mps 757 mmHg 19%
    23:00 +26°C° 0 mm 10 mps 757 mmHg 21%

    Tomorrow, 30 May, Saturday

    Time Temperature Precipitation Wind Pressure Humidity
    00:00 +24°C° 0 mm 10 mps 757 mmHg 23%
    01:00 +24°C° 0 mm 11 mps 757 mmHg 25%
    02:00 +23°C° 0 mm 12 mps 757 mmHg 27%
    03:00 +23°C° 0 mm 12 mps 757 mmHg 28%
    04:00 +23°C° 0 mm 12 mps 757 mmHg 29%
    05:00 +22°C° 0 mm 12 mps 758 mmHg 30%
    06:00 +24°C° 0 mm 12 mps 758 mmHg 26%
    07:00 +27°C° 0 mm 12 mps 758 mmHg 22%
    08:00 +29°C° 0 mm 12 mps 758 mmHg 18%
    09:00 +31°C° 0 mm 12 mps 758 mmHg 17%
    10:00 +33°C° 0 mm 11 mps 758 mmHg 16%
    11:00 +34°C° 0 mm 11 mps 758 mmHg 15%
    12:00 +36°C° 0 mm 10 mps 757 mmHg 16%
    13:00 +36°C° 0 mm 10 mps 757 mmHg 17%
    14:00 +36°C° 0 mm 10 mps 756 mmHg 18%
    15:00 +36°C° 0 mm 10 mps 756 mmHg 19%
    16:00 +34°C° 0 mm 10 mps 756 mmHg 21%
    17:00 +33°C° 0 mm 10 mps 756 mmHg 22%
    18:00 +32°C° 0 mm 10 mps 756 mmHg 23%
    19:00 +31°C° 0 mm 10 mps 756 mmHg 24%
    20:00 +28°C° 0 mm 10 mps 757 mmHg 24%
    21:00 +28°C° 0 mm 10 mps 757 mmHg 22%
    22:00 +28°C° 0 mm 10 mps 757 mmHg 20%
    23:00 +27°C° 0 mm 10 mps 757 mmHg 19%

    Day after tomorrow, 31 May, Sunday

    Time Temperature Precipitation Wind Pressure Humidity
    00:00 +26°C° 0 mm 10 mps 757 mmHg 20%
    01:00 +24°C° 0 mm 11 mps 756 mmHg 21%
    02:00 +24°C° 0 mm 11 mps 756 mmHg 22%
    03:00 +23°C° 0 mm 12 mps 756 mmHg 22%
    04:00 +23°C° 0 mm 12 mps 757 mmHg 22%
    05:00 +22°C° 0 mm 12 mps 757 mmHg 22%
    06:00 +26°C° 0 mm 12 mps 757 mmHg 18%
    07:00 +29°C° 0 mm 12 mps 757 mmHg 14%
    08:00 +32°C° 0 mm 12 mps 757 mmHg 10%
    09:00 +34°C° 0 mm 11 mps 757 mmHg 11%
    10:00 +36°C° 0 mm 11 mps 757 mmHg 12%
    11:00 +38°C° 0 mm 11 mps 756 mmHg 13%
    12:00 +38°C° 0 mm 11 mps 756 mmHg 14%
    13:00 +38°C° 0 mm 11 mps 756 mmHg 15%
    14:00 +39°C° 0 mm 11 mps 755 mmHg 17%
    15:00 +38°C° 0 mm 11 mps 755 mmHg 17%
    16:00 +37°C° 0 mm 11 mps 755 mmHg 18%
    17:00 +37°C° 0 mm 11 mps 754 mmHg 19%
    18:00 +34°C° 0 mm 10 mps 755 mmHg 19%
    19:00 +33°C° 0 mm 10 mps 755 mmHg 18%
    20:00 +31°C° 0 mm 10 mps 755 mmHg 18%
    21:00 +29°C° 0 mm 11 mps 756 mmHg 18%
    22:00 +29°C° 0 mm 11 mps 756 mmHg 17%
    23:00 +28°C° 0 mm 12 mps 756 mmHg 17%

    1 June, Monday

    Time Temperature Precipitation Wind Pressure Humidity
    00:00 +28°C° 0 mm 11 mps 756 mmHg 19%
    01:00 +27°C° 0 mm 10 mps 755 mmHg 20%
    02:00 +26°C° 0 mm 10 mps 755 mmHg 22%
    03:00 +26°C° 0 mm 10 mps 755 mmHg 24%
    04:00 +24°C° 0 mm 10 mps 755 mmHg 26%
    05:00 +24°C° 0 mm 10 mps 755 mmHg 28%
    06:00 +28°C° 0 mm 9 mps 755 mmHg 24%
    07:00 +32°C° 0 mm 9 mps 756 mmHg 20%
    08:00 +35°C° 0 mm 9 mps 756 mmHg 16%
    09:00 +37°C° 0 mm 9 mps 756 mmHg 16%
    10:00 +38°C° 0 mm 8 mps 756 mmHg 16%
    11:00 +40°C° 0 mm 8 mps 755 mmHg 16%
    12:00 +40°C° 0 mm 7 mps 755 mmHg 17%
    13:00 +40°C° 0 mm 6 mps 754 mmHg 18%
    14:00 +40°C° 0 mm 5 mps 754 mmHg 19%
    15:00 +39°C° 0 mm 5 mps 754 mmHg 19%
    16:00 +39°C° 0 mm 5 mps 753 mmHg 20%
    17:00 +37°C° 0 mm 5 mps 753 mmHg 20%
    18:00 +36°C° 0 mm 5 mps 753 mmHg 23%
    19:00 +34°C° 0 mm 5 mps 754 mmHg 25%
    20:00 +32°C° 0 mm 5 mps 754 mmHg 27%
    21:00 +32°C° 0 mm 5 mps 754 mmHg 28%
    22:00 +30°C° 0 mm 5 mps 754 mmHg 30%
    23:00 +30°C° 0 mm 5 mps 755 mmHg 31%

    2 June, Tuesday

    Time Temperature Precipitation Wind Pressure Humidity
    00:00 +30°C° 0 mm 5 mps 754 mmHg 28%
    01:00 +29°C° 0 mm 5 mps 754 mmHg 25%
    02:00 +29°C° 0 mm 5 mps 754 mmHg 22%
    03:00 +29°C° 0 mm 4 mps 754 mmHg 21%
    04:00 +28°C° 0 mm 4 mps 754 mmHg 21%
    05:00 +28°C° 0 mm 3 mps 754 mmHg 21%
    06:00 +31°C° 0 mm 3 mps 754 mmHg 18%
    07:00 +35°C° 0 mm 3 mps 754 mmHg 16%
    08:00 +38°C° 0 mm 2 mps 755 mmHg 14%
    09:00 +39°C° 0 mm 2 mps 755 mmHg 13%
    10:00 +40°C° 0 mm 1 mps 754 mmHg 12%
    11:00 +41°C° 0 mm 1 mps 754 mmHg 12%
    12:00 +41°C° 0 mm 1 mps 754 mmHg 11%
    13:00 +42°C° 0 mm 1 mps 753 mmHg 10%
    14:00 +43°C° 0 mm 1 mps 753 mmHg 10%
    15:00 +42°C° 0 mm 1 mps 753 mmHg 10%
    16:00 +42°C° 0 mm 2 mps 752 mmHg 10%
    17:00 +42°C° 0 mm 2 mps 752 mmHg 10%
    18:00 +39°C° 0 mm 2 mps 752 mmHg 11%
    19:00 +37°C° 0 mm 2 mps 752 mmHg 12%
    20:00 +35°C° 0 mm 3 mps 752 mmHg 13%
    21:00 +35°C° 0 mm 3 mps 752 mmHg 14%
    22:00 +35°C° 0 mm 3 mps 752 mmHg 14%
    23:00 +35°C° 0 mm 3 mps 752 mmHg 15%

    3 June, Wednesday

    Time Temperature Precipitation Wind Pressure Humidity
    00:00 +34°C° 0 mm 5 mps 752 mmHg 16%
    01:00 +34°C° 0 mm 8 mps 752 mmHg 17%
    02:00 +33°C° 0 mm 10 mps 752 mmHg 19%
    03:00 +32°C° 0 mm 10 mps 752 mmHg 26%
    04:00 +31°C° 0 mm 10 mps 752 mmHg 33%
    05:00 +28°C° 0 mm 10 mps 752 mmHg 40%
    06:00 +32°C° 0 mm 10 mps 753 mmHg 33%
    07:00 +36°C° 0 mm 10 mps 753 mmHg 27%
    08:00 +39°C° 0 mm 9 mps 753 mmHg 20%
    09:00 +40°C° 0 mm 9 mps 753 mmHg 19%
    10:00 +43°C° 0 mm 9 mps 753 mmHg 18%
    11:00 +44°C° 0 mm 9 mps 753 mmHg 17%
    12:00 +44°C° 0 mm 8 mps 753 mmHg 18%
    13:00 +44°C° 0 mm 7 mps 752 mmHg 19%
    14:00 +44°C° 0 mm 6 mps 752 mmHg 20%
    15:00 +43°C° 0 mm 5 mps 751 mmHg 19%
    16:00 +42°C° 0 mm 4 mps 751 mmHg 19%
    17:00 +42°C° 0 mm 4 mps 751 mmHg 18%
    18:00 +40°C° 0 mm 4 mps 751 mmHg 20%
    19:00 +37°C° 0 mm 4 mps 751 mmHg 22%
    20:00 +35°C° 0 mm 5 mps 751 mmHg 24%
    21:00 +34°C° 0 mm 5 mps 752 mmHg 24%
    22:00 +34°C° 0 mm 6 mps 752 mmHg 23%
    23:00 +34°C° 0 mm 7 mps 752 mmHg 23%
    Show more